This is the latest recevied weather packets stored in our database for station/object KD2RHT-13. If no packets are shown the sender has not sent any weather packets the latest 10 day(s).
| Time | Temp. | Humidity | Pressure | Rain* | Wind** | Luminosity | Snow |
|---|---|---|---|---|---|---|---|
| 1777506015 | 13.33° C | 99% | 1007.7 hPa | 4.32 mm | - | 0 W/m² | - |
| 1777505711 | 13.33° C | 99% | 1007.7 hPa | 4.32 mm | - | 0 W/m² | - |
| 1777505408 | 13.33° C | 99% | 1007.7 hPa | 6.1 mm | - | 1 W/m² | - |
| 1777505105 | 13.33° C | 99% | 1007.7 hPa | 3.05 mm | - | 1 W/m² | - |
| 1777504802 | 13.33° C | 99% | 1007.7 hPa | 4.83 mm | - | 2 W/m² | - |
| 1777504499 | 13.33° C | 99% | 1007.7 hPa | 4.83 mm | - | 2 W/m² | - |
| 1777504194 | 13.33° C | 99% | 1007.7 hPa | 3.56 mm | - | 3 W/m² | - |
| 1777503890 | 13.33° C | 99% | 1008 hPa | 3.05 mm | - | 3 W/m² | - |
| 1777503586 | 13.33° C | 99% | 1007.7 hPa | 1.27 mm | - | 3 W/m² | - |
| 1777503284 | 13.33° C | 99% | 1008 hPa | 1.78 mm | - | 7 W/m² | - |
| 1777502980 | 13.33° C | 99% | 1007.7 hPa | 0 mm | - | 10 W/m² | - |
| 1777502678 | 13.33° C | 99% | 1007.7 hPa | 1.27 mm | - | 9 W/m² | - |
| 1777502374 | 13.33° C | 99% | 1008 hPa | 1.27 mm | - | 13 W/m² | - |
| 1777502071 | 13.33° C | 99% | 1008 hPa | 1.78 mm | - | 12 W/m² | - |
| 1777501768 | 13.33° C | 99% | 1008 hPa | 1.78 mm | - | 14 W/m² | - |
| 1777501466 | 13.33° C | 99% | 1008 hPa | 1.27 mm | - | 12 W/m² | - |
| 1777501162 | 13.33° C | 99% | 1008.3 hPa | 3.05 mm | - | 14 W/m² | - |
| 1777500861 | 13.33° C | 99% | 1008.3 hPa | 0 mm | - | 19 W/m² | - |
| 1777500558 | 13.33° C | 99% | 1008.3 hPa | 1.27 mm | - | 19 W/m² | - |
| 1777500254 | 13.33° C | 99% | 1008.3 hPa | 1.27 mm | - | 33 W/m² | - |
| 1777499951 | 13.33° C | 99% | 1008.3 hPa | 0 mm | - | 44 W/m² | - |
| 1777499647 | 13.33° C | 99% | 1008.3 hPa | 0 mm | - | 44 W/m² | - |
| 1777499344 | 13.33° C | 99% | 1008.7 hPa | 1.78 mm | - | 39 W/m² | - |
| 1777499042 | 13.33° C | 99% | 1008.7 hPa | 3.05 mm | - | 39 W/m² | - |
| 1777498738 | 13.33° C | 99% | 1008.7 hPa | 3.05 mm | - | 27 W/m² | - |
* Rain latest hour (hover to see other rain measurements)
** Current wind speed in m/s (hover to see current wind gust speed)